Regional Weather Roundup
Issued by NWS Kansas City/Pleasant Hill, MO

Home | Current Version | Previous Version | Graphics & Text | Print | Product List | Glossary Off
Versions: 1 2 3 4 5 6 7 8 9 10 11 12 13 14 15 16 17 18 19 20 21 22 23 24 25 26 27 28

000
ASUS43 KEAX 220910
RWREAX

WEATHER ROUNDUP FOR EASTERN KANSAS AND NORTHWEST MISSOURI
NATIONAL WEATHER SERVICE KANSAS CITY/PLEASANT HILL MO
400 AM CDT SAT APR 22 2017

KSZ040-057-103>105-MOZ028-029-037-043-221000-
...KANSAS CITY METROPOLITAN AREA...

CITY           SKY/WX    TMP DP  RH WIND       PRES   REMARKS
K.C. INTL      CLOUDY    50  38  63 NE14      30.08S
K.C. DOWNTOWN  CLOUDY    52  37  56 NE12      30.07S
LEES SUMMIT    LGT RAIN  50  40  68 NE14      30.06S
OLATHE - IXD   CLOUDY    49  39  68 NE14G24   30.06S
OLATHE - OJC   LGT RAIN  48  40  73 NE13      30.06R
LAWRENCE       CLOUDY    51  39  63 N10       30.07S

$$

MOZ001>008-011>017-020>025-030>033-038>040-044>046-053-054-221000-
...NORTHERN AND CENTRAL MISSOURI...

CITY           SKY/WX    TMP DP  RH WIND       PRES   REMARKS
ST. JOSEPH     CLOUDY    51  39  63 MISG      30.11S
MOSBY          CLOUDY    52  36  54 NE8       30.09S
WHITEMAN AFB   LGT RAIN  48  43  80 NE8G24    30.04S
CLINTON        LGT RAIN  45  45 100 NE14G24   30.03S
SEDALIA        NOT AVBL
WARSAW         NOT AVBL
CHILLICOTHE      N/A     50  38  63 N5        30.11S
KIRKSVILLE     CLOUDY    46  38  73 N9        30.10S

$$

MOZ041-047>049-056>058-063>065-088>090-097-221000-
...EASTERN AND SOUTHERN MISSOURI...

CITY           SKY/WX    TMP DP  RH WIND       PRES   REMARKS
ST. LOUIS INTL CLOUDY    49  36  61 NE13      29.97S
SPIRIT OF STL  CLOUDY    48  36  63 NE14      29.93F
COLUMBIA       CLOUDY    48  36  63 NE16G30   30.01F
JEFFERSON CITY CLOUDY    49  38  65 N5        30.03R
ROLLA          CLOUDY    44  39  82 NE18G25   29.92R
OSAGE BEACH    TSTM      45  41  87 NE20G28   29.98F
SPRINGFIELD    LGT RAIN  46  45  96 N16       29.92S FOG
BRANSON        LGT RAIN  48  48 100 CALM      29.90R
JOPLIN         LGT RAIN  47  47 100 NE13G21   29.95R FOG
WEST PLAINS    CLOUDY    49  47  93 E7        29.89R

$$

IAZ060-094-KSZ022-034>040-054-083-096-NEZ052-066-093-221000-
...KANSAS...SOUTHEAST NEBRASKA AND IOWA...

CITY           SKY/WX    TMP DP  RH WIND       PRES   REMARKS
TOPEKA         CLOUDY    51  40  65 NE14      30.08R
MANHATTAN      CLOUDY    51  40  65 N8        30.12R
EMPORIA        CLOUDY    46  43  89 N10       30.06S
CHANUTE        LGT RAIN  46  43  89 N18G26    30.02R
WICHITA        CLOUDY    46  43  89 N14       30.08S
OMAHA          CLOUDY    43  37  79 N9        30.20R
LINCOLN        CLOUDY    43  37  79 N8        30.20S
FALLS CITY     CLOUDY    49  39  68 N9        30.13S
LAMONI         CLOUDY    46  39  76 N7        30.14R
DES MOINES     CLOUDY    47  36  65 N3        30.17R

$$





USA.gov is the U.S. government's official web portal to all federal, state and local government web resources and services.